DECAYED
Showing default

AXIOM-4, 64593 (Decayed)

Orbit data source: Space-Track

AXIOM-4, 64593 was a payload satellite owned by SpaceX (US) in LEO that was launched on Wed, 25 Jun 2025 UTC via an FALCON 9 launch vehicle from the Air Force Eastern Test Range (AFETR). Payload-class satellites include a variety of spacecraft equipped with specific instruments for various scientific and technological missions. These include communications satellites like Starlink; space stations such as the ISS; scientific satellites like the Hubble; Earth observation satellites from companies like Planet Labs, Umbra, and HawkEye 360; GPS; miniature CubeSats for education and research; and military/defense satellites.

Loading next visibility...
Identifier
64593, 2025-136A
Orbit
Decayed
Country
Flag of USUS
Related business
Manufacturer
SpaceX
Mission
Decayed Commercial Spaceship
Bus & Motor
DRAGON CM, Unknown motor
Mass
~13,000 kg wet, ~9,500 kg dry
Launch date (UTC)
2025-06-25 (1 year ago)
Launch vehicle
FALCON 9
Launch site
Air Force Eastern Test Range (AFETR)
Object type
Payload
Rocket body
Debris
Shape & HBR
Trunc Cone + Cyl + 4 Fin, 14.5 m
Radar Cross Section
21.677 m², Large (>1 m²)

Expand to show TLE details & history
Last TLE update: 11 months ago

TLE from 11 months ago
0 AXIOM-4
1 64593U 25136A   25195.85349944  .00004183  00000-0  10000-3 0  9992
2 64593  51.6363 169.9496 0003692   8.7454 351.3140 15.43789036  3045
Epoch: 2025-07-14T20:29Z
TLE epoch observation values (Epoch: 2025-07-14T20:29:02.351Z)
Latitude
-0.03602°
Longitude
-70.29496°
Altitude
433.196 km
Speed
7.654 km/s
True Right ascension
11h 19m 41s
True Declination
0° 02' 09"
Sunlit
Object was in daylight at epoch
Visualization orbit readout
Latitude
Unknown
Longitude
Unknown
Altitude
Unknown
Speed
Unknown
Apparent Right ascension
Unknown
Apparent Declination
Unknown
Sunlit
N/A
Visualization observer readout
Local Sidereal Time
07:20:19
Azimuth
Unknown
Elevation
Unknown
Doppler factor
Unknown
Orbital elements
Apogee altitude
437.961 km
Perigee altitude
432.93 km
Semi-major axis
6,813.583 km
Eccentricity
0.00037
Inclination
51.6363°
RAAN
169.9496°
Arg. of periapsis
8.7454°
True anomaly
351.30761°
Mean anomaly
351.314°
Eccentric anomaly
351.3108°
Mean motion
3.85905 °/min
Orbital period
93.29 mins
BSTAR
0.0001
Loading maneuver chart data...
Computing Atmospheric mass density...
Loading historical data...
Loading historical data...
Loading historical data...
Loading historical data...
Loading historical data...
Loading historical data...
Loading historical data...
Other satellites on launch #136 in the year 2025 (2025-06-25 UTC)

Documentation

Showing up to 5 results
|